STARLINK-32624, 61926

Orbit data source: Space-Track

STARLINK-32624, 61926 is a payload satellite owned by SpaceX/Seattle (US) in LEO that was launched on Mon, 11 Nov 2024 UTC via an FALCON 9 launch vehicle from the Air Force Eastern Test Range (AFETR). Payload-class satellites include a variety of spacecraft equipped with specific instruments for various scientific and technological missions. These include communications satellites like Starlink; space stations such as the ISS; scientific satellites like the Hubble; Earth observation satellites from companies like Planet Labs, Umbra, and HawkEye 360; GPS; miniature CubeSats for education and research; and military/defense satellites.

Loading next visibility...
Identifier
61926, 2024-207Q
Orbit
LEO
Country
Flag of USUS
Related business
Manufacturer
SpaceX/Seattle
Mission
Operational Commercial Communications
Bus & Motor
STARLINK V2M, Unknown motor
Mass
730 kg wet, ~700 kg dry
Launch date (UTC)
2024-11-11 (1 year ago)
Launch vehicle
FALCON 9
Launch site
Air Force Eastern Test Range (AFETR)
Object type
Payload
Rocket body
Debris
Shape & HBR
Box + 2 Pan, 17.7 m
Radar Cross Section
33.884 m², Large (>1 m²)

Expand to show TLE details & history
Last TLE update: 11 hours ago

TLE from 11 hours ago
0 STARLINK-32624
1 61926U 24207Q   25312.82872211  .00044342  00000-0  16070-2 0  9996
2 61926  43.0007 243.8105 0002951 282.5265  77.5257 15.27663332 56248
Epoch: 2025-11-08T19:53Z
TLE epoch observation values (Epoch: 2025-11-08T19:53:21.590Z)
Latitude
0.00002°
Longitude
-102.78216°
Altitude
482.138 km
Speed
7.626 km/s
True Right ascension
16h 15m 14s
True Declination
0° 00' 00"
Sunlit
Object was in daylight at epoch
Visualization orbit readout
Latitude
Unknown
Longitude
Unknown
Altitude
Unknown
Speed
Unknown
Apparent Right ascension
Unknown
Apparent Declination
Unknown
Sunlit
N/A
Visualization observer readout
Local Sidereal Time
02:54:35
Azimuth
Unknown
Elevation
Unknown
Doppler factor
Unknown
Orbital elements
Apogee altitude
486.77 km
Perigee altitude
482.719 km
Semi-major axis
6,862.882 km
Eccentricity
0.0003
Inclination
43.0007°
RAAN
243.8105°
Arg. of periapsis
282.5265°
True anomaly
77.55872°
Mean anomaly
77.5257°
Eccentric anomaly
77.54221°
Mean motion
3.81754 °/min
Orbital period
94.3 mins
BSTAR
0.001607
Loading maneuver chart data...
Computing Atmospheric mass density...
Loading historical data...
Loading historical data...
Loading historical data...
Loading historical data...
Loading historical data...
Loading historical data...
Loading historical data...

Documentation

Showing up to 5 results
|